DW9396 Weather Reports


Display with metric or nautical units.
time (UTC)temp
F
wind
direction
speed
MPH
gust
MPH
rain 1hr
in
rain 24hr
in
rain mn
in
humidity
%
barometer
mb
20260510110010 56 138 0.0 2.0 0.00 0.00 0.00 91 1010.5
20260510104522 56 142 0.0 2.0 0.00 0.00 0.00 91 1010.5
20260510103011 56 138 0.0 3.0 0.00 0.00 0.00 91 1010.6
20260510101507 56 143 0.0 3.0 0.00 0.00 0.00 90 1010.7
20260510100005 56 137 0.0 3.0 0.00 0.00 0.00 90 1010.7
20260510094504 56 148 1.0 2.0 0.00 0.00 0.00 90 1010.7
20260510093003 57 145 1.0 3.0 0.00 0.00 0.00 90 1010.8
20260510091503 57 142 1.0 4.0 0.00 0.00 0.00 90 1010.6
20260510090000 57 149 1.0 4.0 0.00 0.00 0.00 89 1010.6
20260510084604 58 141 1.0 3.0 0.00 0.00 0.00 88 1010.6
20260510083058 58 166 1.0 4.0 0.00 0.00 0.00 88 1010.6
20260510080056 58 145 0.0 3.0 0.00 0.00 0.00 90 1010.7
20260510074555 58 138 1.0 3.0 0.00 0.00 0.00 89 1010.6
20260510073103 58 138 1.0 3.0 0.00 0.00 0.00 89 1010.6
20260510070050 58 141 1.0 2.0 0.00 0.00 0.00 89 1010.7
20260510064550 59 136 0.0 0.0 0.00 0.00 0.00 88 1010.7
20260510063050 59 138 0.0 0.0 0.00 0.00 0.00 88 1010.6
20260510060048 61 141 0.0 0.0 0.00 0.00 0.00 85 1010.6
20260510054558 61 141 0.0 1.0 0.00 0.00 0.00 85 1010.6
20260510053047 61 131 0.0 1.0 0.00 0.00 0.00 84 1010.5
20260510050053 62 127 0.0 2.0 0.00 0.00 0.00 83 1010.7
20260510044549 63 142 0.0 1.0 0.00 0.00 0.00 83 1010.6
20260510043047 63 143 0.0 1.0 0.00 0.00 0.00 81 1010.7
20260510040045 65 82 0.0 1.0 0.00 0.00 0.00 77 1010.7
20260510034553 66 82 0.0 1.0 0.00 0.00 0.00 75 1010.6
20260510033050 67 82 0.0 1.0 0.00 0.00 0.00 73 1010.4
20260510030045 69 80 0.0 0.0 0.00 0.00 0.00 68 1010.2
20260510024604 70 80 0.0 0.0 0.00 0.00 0.00 66 1010.1
20260510023043 71 80 0.0 1.0 0.00 0.00 0.00 64 1010.0
20260510020041 73 360 0.0 0.0 0.00 0.00 0.00 62 1009.7
20260510014540 74 278 0.0 1.0 0.00 0.00 0.00 61 1009.7
20260510013049 75 25 0.0 2.0 0.00 0.00 0.00 59 1009.7
20260510010041 77 348 0.0 2.0 0.00 0.00 0.00 53 1009.7
20260510004546 78 288 0.0 3.0 0.00 0.00 0.00 52 1009.8
20260510003040 79 1 1.0 3.0 0.00 0.00 0.00 49 1009.8
20260510000038 82 352 0.0 2.0 0.00 0.00 0.00 48 1009.9
20260509234537 82 329 1.0 3.0 0.00 0.00 0.00 47 1010.0
20260509233037 82 346 0.0 4.0 0.00 0.00 0.00 48 1010.0
20260509230034 82 358 1.0 3.0 0.00 0.00 0.00 47 1010.0
20260509224535 82 284 1.0 5.0 0.00 0.00 0.00 47 1010.1
20260509223038 82 313 0.0 3.0 0.00 0.00 0.00 47 1010.4
20260509220032 83 354 0.0 3.0 0.00 0.00 0.00 42 1010.5
20260509214532 83 333 0.0 3.0 0.00 0.00 0.00 43 1010.5
20260509213029 83 270 0.0 3.0 0.00 0.00 0.00 45 1010.7
20260509210027 82 19 1.0 4.0 0.00 0.00 0.00 46 1010.7
20260509204523 83 314 0.0 3.0 0.00 0.00 0.00 48 1010.8
20260509203024 82 288 0.0 4.0 0.00 0.00 0.00 48 1011.0
20260509200019 81 316 0.0 3.0 0.00 0.00 0.00 48 1011.1
20260509194518 81 284 0.0 3.0 0.00 0.00 0.00 48 1011.2
20260509193017 81 32 1.0 3.0 0.00 0.00 0.00 46 1011.4
20260509190017 82 240 0.0 2.0 0.00 0.00 0.00 47 1011.7
20260509184516 80 259 0.0 2.0 0.00 0.00 0.00 48 1011.9
20260509183011 80 18 1.0 3.0 0.00 0.00 0.00 46 1011.9
20260509180002 78 163 0.0 2.0 0.00 0.00 0.00 46 1012.1
20260509174601 77 232 0.0 3.0 0.00 0.00 0.00 46 1012.0
20260509173118 76 325 0.0 2.0 0.00 0.00 0.00 52 1012.0
20260509170110 75 276 0.0 1.0 0.00 0.00 0.00 52 1012.0
20260509164558 74 292 0.0 2.0 0.00 0.00 0.00 55 1012.0
20260509163051 73 295 0.0 2.0 0.00 0.00 0.00 60 1011.9
20260509160047 72 143 0.0 0.0 0.00 0.00 0.00 62 1012.2
20260509154540 69 144 0.0 1.0 0.00 0.00 0.00 64 1012.2
20260509153036 65 143 0.0 1.0 0.00 0.00 0.00 68 1012.4
20260509150029 58 144 0.0 1.0 0.00 0.00 0.00 80 1012.4
20260509144524 54 138 0.0 1.0 0.00 0.00 0.00 86 1012.6
20260509143024 53 160 0.0 2.0 0.00 0.00 0.00 87 1012.5
20260509140022 51 132 1.0 4.0 0.00 0.00 0.00 88 1012.6
20260509134521 50 141 0.0 2.0 0.00 0.00 0.00 90 1012.4
20260509133021 50 133 0.0 1.0 0.00 0.00 0.00 91 1012.3
20260509130050 50 138 0.0 3.0 0.00 0.00 0.00 90 1012.0
20260509124529 50 144 1.0 3.0 0.00 0.00 0.00 89 1012.0
20260509123016 50 141 1.0 3.0 0.00 0.00 0.00 89 1012.0
20260509120023 50 138 0.0 3.0 0.00 0.00 0.00 89 1011.9
20260509114517 51 142 1.0 3.0 0.00 0.00 0.00 88 1012.0
20260509113013 51 134 1.0 4.0 0.00 0.00 0.00 88 1012.1